Location: Northam
(31.6525°S, 116.6655°E)
Time: 03:55:37
(UTC+08:00)

N. Korean satellite - Visible Passes

Search period start: 22 August 2019 00:00
Search period end: 01 September 2019 00:00
Orbit: 457 x 507 km, 97.2° (Epoch: 21 August)

Date Brightness Start Highest point End Pass type
(mag) Time Alt. Az. Time Alt. Az. Time Alt. Az.
22 Aug 7.8 05:11:51 10° NNE 05:15:08 41° ESE 05:18:27 10° S visible
22 Aug 7.0 18:16:02 10° S 18:19:39 67° WSW 18:23:15 10° NNW visible
23 Aug 9.3 04:47:39 10° ENE 04:50:07 18° ESE 04:52:34 10° SSE visible
24 Aug 7.0 05:54:53 10° NNW 05:58:08 38° W 06:01:25 10° SSW visible
24 Aug 9.7 19:00:07 10° SSW 19:02:29 17° WSW 19:04:52 10° WNW visible
25 Aug 6.5 05:29:31 10° NNE 05:32:58 82° ESE 05:36:28 10° S visible
25 Aug 8.4 18:34:07 10° S 18:37:29 35° WSW 18:40:51 10° NW visible
26 Aug 8.3 05:04:45 10° NE 05:07:52 32° ESE 05:11:02 10° S visible
27 Aug 9.7 04:40:51 10° ENE 04:42:52 15° ESE 04:44:54 10° SE visible
28 Aug 6.6 05:47:28 10° N 05:50:49 49° W 05:54:13 10° SSW visible
28 Aug 9.5 18:52:29 10° SSW 18:55:16 21° WSW 18:58:03 10° WNW visible
29 Aug 6.9 05:22:16 10° NNE 05:25:40 63° ESE 05:29:08 10° S visible
29 Aug 7.9 18:26:42 10° S 18:30:14 45° WSW 18:33:47 10° NNW visible
30 Aug 8.8 04:57:41 10° NE 05:00:36 26° ESE 05:03:33 10° SSE visible
31 Aug 9.9 04:34:15 10° E 04:35:37 12° ESE 04:37:01 10° SE visible
31 Aug 7.5 06:05:46 10° NNW 06:08:43 26° W 06:11:42 10° SW visible
31 Aug 10.0 19:11:27 10° SW 19:13:00 12° WSW 19:14:32 10° W visible
